Location: Earls Croome
(52.0667°N, 2.2000°W)
Time: 17:04:34
(UTC+00:00)

STARLINK-52 - Pass Details

Date: 17 November 2019
Orbit: 443 x 445 km, 53.0° (Epoch: 10 December)

Event Time Altitude Azimuth Distance (km) Brightness Sun altitude
Exits shadow 05:46:36 37° 276° (W) 713 3.6 -15.9°
Maximum altitude 05:47:53 76° 356° (N) 464 3.1 -15.7°
Drops below altitude 10° 05:51:25 10° 82° (E) 1,570 7.1 -15.2°
Sets 05:53:32 0° 84° (E) 2,442 8.4 -14.8°
